Flag for Morocco Weather past 2 weeks in Casablanca, Morocco

Now
70 °F

Scattered clouds.


Feels Like: 70 °F
Forecast: 65 / 74 °F
Wind: 7 mph from Northeast

Location: Casablanca Airport

Current Time: May 22, 2015 at 9:42:16 AM

Latest Report: May 22, 2015 at 9:00 AM


Visibility: N/A

Pressure: 29.98 "Hg

Humidity: 78%

Dew point: 63 °F

Location of CasablancaLocation

Historic Weather in Casablanca — Graph

°F

Casablanca temperature yesterday

Maximum temperature yesterday: 73 °F (at 11:00 AM)
Minimum temperature yesterday: 64 °F (at 7:00 AM)
Average temperature yesterday: 70 °F

Past Weeks' High & Low Weather Summary

 TemperatureHumidityPressure
High91 °F (May 12, 3:00 PM)100% (May 10, 7:00 AM)30.18 "Hg (May 10, 7:00 AM)
Low61 °F (May 8, 7:00 AM)47% (May 16, 11:00 AM)29.83 "Hg (May 18, 1:00 PM)
Average72 °F70%30.01 "Hg
* Reported May 7 8:00 AM — May 22 8:00 AM, Casablanca, Weather by CustomWeather, © 2015

Note: Actual official high and low records may vary slightly from our data, if they occured in-between our weather recording intervals... More about our weather records

Advertising

Casablanca weather history for previous 24 hours

 ConditionsComfort  
Time TempWeatherWind HumidityBarometerVisibility
8:00 AM
Fri, May 22
68 °FSunny.5 mph73%29.95 "Hg10 mi
6:00 AM66 °FClear.5 mph78%29.95 "Hg10 mi
1:00 AM66 °FClear.7 mph83%29.98 "Hg10 mi
12:00 AM68 °FClear.7 mph78%29.98 "Hg10 mi
11:00 PM
Thu, May 21
68 °FClear.7 mph78%29.98 "Hg10 mi
10:00 PM70 °FClear.7 mph73%29.98 "Hg10 mi
9:00 PM68 °FClear.7 mph88%29.98 "Hg10 mi
8:00 PM68 °FSunny.12 mph88%29.98 "Hg10 mi
7:00 PM70 °FPartly sunny.12 mph83%29.98 "HgN/A
6:00 PM72 °FSunny.12 mph65%30.04 "Hg10 mi
5:00 PM73 °FSunny.12 mph61%30.04 "Hg10 mi
4:00 PM73 °FSunny.12 mph61%30.04 "Hg10 mi
3:00 PM73 °FSunny.12 mph61%30.04 "Hg10 mi
2:00 PM73 °FSunny.12 mph65%30.04 "Hg10 mi
1:00 PM73 °FSunny.12 mph65%30.04 "Hg10 mi
12:00 PM73 °FSunny.12 mph61%30.07 "Hg10 mi
11:00 AM73 °FSunny.12 mph65%30.07 "Hg10 mi
10:00 AM72 °FSunny.5 mph69%30.04 "Hg10 mi
9:00 AM64 °FScattered clouds.5 mph83%30.04 "Hg4 mi
Weather by CustomWeather, © 2015

See weather overviewHow to use our weather pages